Location: Asheville, NC
(35.6000°N, 82.5500°W)
Time: 19:49:16
(UTC-04:00)

ZACube-1 - Pass Details

Date: 11 March 2018
Orbit: 584 x 668 km, 97.6° (Epoch: 19 June)

Event Time Altitude Azimuth Distance (km) Brightness Sun altitude
Rises 20:29:27 0° 159° (SSE) 2,909 ? -12.0°
Reaches altitude 10° 20:31:41 10° 156° (SSE) 1,992 ? -12.5°
Maximum altitude 20:35:57 62° 76° (ENE) 695 ? -13.3°
Drops below altitude 10° 20:40:09 10° 356° (N) 1,955 ? -14.2°
Sets 20:42:19 0° 353° (N) 2,851 ? -14.6°
